Home > Weather > Bijar > Past weeks

Flag for Iran Weather for the Past 2 Weeks in Bijar, Iran

Now
54 °F

Rain. More clouds than sun.


Feels Like: 53 °F
Forecast: 52 / 71 °F
Wind: 5 mph from South

Location: Sanandaj Airport

Current Time: Apr 29, 2016 at 9:27:45 PM

Latest Report: Apr 29, 2016 at 8:21 PM


Visibility: 3 mi

Pressure: 30.12 "Hg (23.91 "Hg at 1927m altitude)

Humidity: 88%

Dew Point: 50 °F

Location of BijarLocation

Historic Weather in Bijar — Graph

°F

Bijar Temperature Yesterday

Maximum temperature yesterday: 81 °F (at 2:21 PM)
Minimum temperature yesterday: 54 °F (at 5:22 AM)
Average temperature yesterday: 65 °F

High & Low Weather Summary for the Past Weeks

 TemperatureHumidityPressure
High84 °F (Apr 27, 3:00 PM)93% (Apr 15, 1:21 AM)30.27 "Hg (Apr 15, 1:21 AM)
Low36 °F (Apr 18, 7:21 AM)15% (Apr 22, 4:22 PM)29.86 "Hg (Apr 21, 3:24 AM)
Average58 °F52%30.06 "Hg
* Reported Apr 14 8:22 PM — Apr 29 7:30 PM, Bijar, Weather by CustomWeather, © 2016

Note: Actual official high and low records may vary slightly from our data, if they occured in-between our weather recording intervals... More about our weather records

Advertising

Bijar Weather History for the Previous 24 Hours

Scroll right to see more
 ConditionsComfort  
Time TempWeatherWind HumidityBarometerVisibility
7:30 PM
Fri, Apr 29
55 °FSprinkles. Broken clouds.5 mph77%30.09 "Hg2 mi
6:26 PM59 °FRain showers. Broken clouds.12 mph68%30.07 "Hg4 mi
5:30 PM70 °FBroken clouds.5 mph40%29.98 "Hg5 mi
4:30 PM70 °FBroken clouds.7 mph38%29.98 "Hg5 mi
3:30 PM70 °FBroken clouds.9 mph38%29.98 "Hg6 mi
2:30 PM66 °FBroken clouds.9 mph46%30.04 "Hg6 mi
1:30 PM66 °FBroken clouds.12 mph43%30.07 "Hg6 mi
12:30 PM64 °FBroken clouds.12 mph56%30.07 "Hg6 mi
12:00 PM70 °FBroken clouds.12 mph43%30.07 "Hg6 mi
11:30 AM68 °FBroken clouds.5 mph46%30.04 "Hg6 mi
11:00 AM66 °FBroken clouds.5 mph49%30.04 "Hg6 mi
10:30 AM63 °FPartly sunny.No wind49%30.04 "Hg6 mi
9:30 AM61 °FPartly sunny.2 mph55%30.04 "Hg6 mi
9:00 AM59 °FScattered clouds.5 mph63%30.04 "HgN/A
8:30 AM57 °FPartly sunny.2 mph67%30.04 "HgN/A
8:00 AM54 °FPassing clouds.No wind77%30.04 "HgN/A
6:25 AM48 °FPassing clouds.No wind82%30.01 "HgN/A
5:22 AM50 °FPassing clouds.No wind82%30.01 "HgN/A
4:26 AM52 °FPassing clouds.No wind77%30.01 "HgN/A
3:23 AM54 °FClear.No wind67%30.01 "Hg10 mi
2:23 AM55 °FPassing clouds.No wind67%30.01 "HgN/A
1:21 AM57 °FPassing clouds.No wind59%30.04 "HgN/A
12:23 AM59 °FPassing clouds.2 mph55%30.04 "HgN/A
11:21 PM
Thu, Apr 28
64 °FPassing clouds.5 mph40%30.04 "HgN/A
10:24 PM64 °FPartly cloudy.9 mph43%30.07 "HgN/A
9:26 PM66 °FBroken clouds.14 mph37%30.07 "HgN/A
Weather by CustomWeather, © 2016

See weather overviewHow to use our weather pages